GW1942 Weather Reports


Display with metric or nautical units.
time (UTC)temp
F
wind
direction
speed
MPH
gust
MPH
rain 1hr
in
rain 24hr
in
rain mn
in
humidity
%
barometer
mb
20260510043038 53 108 2.0 5.0 0.00 0.00 0.00 55 1017.4
20260510041541 55 178 2.0 6.0 0.00 0.00 0.00 53 1017.3
20260510040036 56 91 2.0 6.0 0.00 0.00 0.00 51 1017.0
20260510034535 58 86 4.0 9.0 0.00 0.00 0.00 50 1016.9
20260510033034 59 97 3.0 6.0 0.00 0.00 0.00 47 1016.7
20260510031534 61 94 2.0 5.0 0.00 0.00 0.00 47 1016.7
20260510030044 60 75 1.0 3.0 0.00 0.00 0.00 52 1016.5
20260510024532 63 226 0.0 1.0 0.00 0.00 0.00 47 1016.4
20260510023032 67 276 0.0 1.0 0.00 0.00 0.00 33 1016.1
20260510021532 69 311 0.0 3.0 0.00 0.00 0.00 32 1016.2
20260510020031 71 289 0.0 3.0 0.00 0.00 0.00 31 1016.2
20260510014532 71 316 2.0 6.0 0.00 0.00 0.00 29 1016.0
20260510013031 72 241 0.0 4.0 0.00 0.00 0.00 30 1016.1
20260510011528 72 261 1.0 5.0 0.00 0.00 0.00 29 1016.1
20260510010026 73 240 1.0 7.0 0.00 0.00 0.00 28 1016.1
20260510004525 74 224 2.0 5.0 0.00 0.00 0.00 27 1016.0
20260510003035 74 282 0.0 4.0 0.00 0.00 0.00 27 1016.0
20260510001524 74 241 1.0 6.0 0.00 0.00 0.00 27 1016.0
20260510000023 74 251 2.0 5.0 0.00 0.00 0.00 27 1015.8
20260509234530 73 155 1.0 6.0 0.00 0.00 0.00 27 1015.7
20260509233020 73 212 3.0 7.0 0.00 0.00 0.00 27 1015.9
20260509231520 74 203 3.0 7.0 0.00 0.00 0.00 26 1015.9
20260509230019 74 192 0.0 7.0 0.00 0.00 0.00 27 1016.0
20260509224518 74 214 1.0 6.0 0.00 0.00 0.00 28 1016.0
20260509223016 74 235 2.0 7.0 0.00 0.00 0.00 29 1016.1
20260509221516 73 275 1.0 9.0 0.00 0.00 0.00 28 1016.3
20260509220024 74 300 2.0 10.0 0.00 0.00 0.00 26 1016.2
20260509214512 71 79 1.0 4.0 0.00 0.00 0.00 28 1016.5
20260509213012 70 248 1.0 5.0 0.00 0.00 0.00 31 1016.5
20260509211511 71 249 1.0 6.0 0.00 0.00 0.00 28 1016.6
20260509210011 72 298 1.0 7.0 0.00 0.00 0.00 28 1016.7
20260509204508 72 309 4.0 8.0 0.00 0.00 0.00 28 1016.7
20260509203010 72 40 1.0 5.0 0.00 0.00 0.00 32 1016.5
20260509201505 71 304 2.0 8.0 0.00 0.00 0.00 32 1016.8
20260509200006 71 296 3.0 8.0 0.00 0.00 0.00 31 1016.7
20260509194502 71 313 2.0 4.0 0.00 0.00 0.00 33 1016.8
20260509193002 70 59 2.0 5.0 0.00 0.00 0.00 31 1016.9
20260509191601 70 40 1.0 6.0 0.00 0.00 0.00 32 1017.0
20260509190057 68 207 4.0 8.0 0.00 0.00 0.00 34 1017.1
20260509184557 68 38 2.0 6.0 0.00 0.00 0.00 34 1017.1
20260509183055 68 83 0.0 7.0 0.00 0.00 0.00 38 1017.2
20260509181600 68 108 1.0 3.0 0.00 0.00 0.00 34 1017.3
20260509180050 66 281 0.0 5.0 0.00 0.00 0.00 36 1017.4
20260509174548 65 295 0.0 6.0 0.00 0.00 0.00 39 1017.4
20260509173048 65 302 0.0 3.0 0.00 0.00 0.00 42 1017.5
20260509171543 63 271 0.0 3.0 0.00 0.00 0.00 44 1017.7
20260509170046 61 39 0.0 3.0 0.00 0.00 0.00 46 1017.8
20260509164541 60 44 0.0 4.0 0.00 0.00 0.00 48 1017.9
20260509163034 58 37 1.0 3.0 0.00 0.00 0.00 56 1018.1
20260509161534 58 271 2.0 3.0 0.00 0.00 0.00 55 1018.0
20260509160032 56 283 0.0 4.0 0.00 0.00 0.00 58 1018.2
20260509154524 56 134 0.0 2.0 0.00 0.00 0.00 58 1018.3
20260509153027 54 85 0.0 1.0 0.00 0.00 0.00 61 1018.2
20260509151521 53 70 0.0 1.0 0.00 0.00 0.00 61 1018.2
20260509150020 51 96 0.0 1.0 0.00 0.00 0.00 65 1018.2
20260509144518 50 73 0.0 1.0 0.00 0.00 0.00 68 1018.1
20260509143017 48 153 0.0 1.0 0.00 0.00 0.00 72 1018.0
20260509141516 47 100 0.0 0.0 0.00 0.00 0.00 76 1017.9
20260509140014 45 100 0.0 0.0 0.00 0.00 0.00 77 1017.7
20260509134512 44 100 0.0 0.0 0.00 0.00 0.00 80 1017.4
20260509133010 41 139 0.0 0.0 0.00 0.00 0.00 89 1017.3
20260509131512 40 206 0.0 1.0 0.00 0.00 0.00 87 1017.2
20260509130008 39 139 0.0 1.0 0.00 0.00 0.00 88 1017.1
20260509124506 38 144 0.0 0.0 0.00 0.00 0.00 88 1016.8
20260509123006 39 144 0.0 1.0 0.00 0.00 0.00 87 1016.5
20260509121612 39 152 0.0 1.0 0.00 0.00 0.00 83 1016.4
20260509120112 42 169 0.0 2.0 0.00 0.00 0.00 78 1015.9
20260509114555 41 210 0.0 1.0 0.00 0.00 0.00 84 1016.1
20260509113056 42 197 0.0 1.0 0.00 0.00 0.00 84 1015.8
20260509111552 42 198 0.0 0.0 0.00 0.00 0.00 84 1015.8
20260509110053 42 119 0.0 0.0 0.00 0.00 0.00 83 1015.7
20260509104548 42 110 0.0 1.0 0.00 0.00 0.00 82 1015.3
20260509103044 44 149 0.0 1.0 0.00 0.00 0.00 78 1015.3
20260509101551 47 149 0.0 1.0 0.00 0.00 0.00 72 1015.2
20260509100044 46 116 0.0 3.0 0.00 0.00 0.00 77 1015.1
20260509094538 47 206 0.0 1.0 0.00 0.00 0.00 76 1014.7
20260509093035 46 118 0.0 1.0 0.00 0.00 0.00 80 1014.7
20260509091534 46 110 0.0 1.0 0.00 0.00 0.00 78 1014.7
20260509090028 48 167 0.0 1.0 0.00 0.00 0.00 73 1014.7
20260509084529 50 9 0.0 0.0 0.00 0.00 0.00 69 1014.7
20260509083024 51 328 0.0 1.0 0.00 0.00 0.00 68 1014.6
20260509081521 53 8 0.0 3.0 0.00 0.00 0.00 62 1014.4
20260509080020 52 32 0.0 4.0 0.00 0.00 0.00 64 1014.4
20260509074518 51 134 0.0 5.0 0.00 0.00 0.00 66 1014.2
20260509073025 53 112 0.0 8.0 0.00 0.00 0.00 58 1014.3
20260509071513 54 122 2.0 6.0 0.00 0.00 0.00 57 1013.9
20260509070011 54 260 0.0 5.0 0.00 0.00 0.00 58 1013.9
20260509064510 54 99 1.0 7.0 0.00 0.00 0.00 59 1013.7
20260509063013 54 97 4.0 8.0 0.00 0.00 0.00 57 1013.7
20260509061605 54 93 2.0 6.0 0.00 0.00 0.00 57 1013.8
20260509060004 54 92 1.0 5.0 0.00 0.00 0.00 59 1013.9
20260509054502 54 124 2.0 5.0 0.00 0.00 0.00 60 1013.8
20260509053002 54 80 3.0 7.0 0.00 0.00 0.00 59 1013.7
20260509051501 54 106 1.0 4.0 0.00 0.00 0.00 58 1013.8
20260509050101 55 114 0.0 2.0 0.00 0.00 0.00 58 1013.7
20260509044559 56 86 0.0 5.0 0.00 0.00 0.00 56 1013.4